Weather History for KALX - October, 2012

Change the Weather History Date:

Tuesday, October 23, 2012

  Actual Average (KAUO) Record (KAUO)
Temperature  
Mean Temperature 64 °F -  
Max Temperature 80 °F - 84 °F (1963)
Min Temperature 49 °F - 32 °F (1987)
Degree Days  
Heating Degree Days 0    
Month to date heating degree days  
Since 1 July heating degree days  
Cooling Degree Days 0    
Month to date cooling degree days  
Year to date cooling degree days  
Growing Degree Days 14 (Base 50)    
Moisture  
Dew Point 51 °F    
Average Humidity 69    
Maximum Humidity 89    
Minimum Humidity 27    
Precipitation  
Precipitation 0.00 in - 1.09 in (1990)
Month to date precipitation  
Year to date precipitation  
Sea Level Pressure  
Sea Level Pressure 30.13 in    
Wind  
Wind Speed 1 mph (SE)    
Max Wind Speed 7 mph    
Max Gust Speed -    
Visibility 10 miles    
Events      
T = Trace of Precipitation, MM = Missing Value Source: NWS Daily Summary

Daily Weather History Graph

Daily Weather History Graph

Search for Another Location

Airport or City:

Trip Planner

Search our weather history database for the weather conditions in past years. The results will help you decide how hot, cold, wet, or windy it might be!

Date:

Astronomy

Oct. 23, 2012 Rise Set
Actual Time 6:54 AM CDT 6:01 PM CDT
Civil Twilight 6:29 AM CDT 6:26 PM CDT
Nautical Twilight 6:00 AM CDT 6:55 PM CDT
Astronomical Twilight 5:31 AM CDT 7:23 PM CDT
Moon 2:27 PM CDT (10/23) 1:04 AM CDT (10/23)
Length of Visible Light 11h 56m
Length of Day
11h 06m
Waxing Gibbous, 67% of the Moon is Illuminated
Oct 23
Waxing Gibbous
Oct 29
Full
Nov 6
Last Quarter
Nov 13
New
Nov 20
First Quarter

Hourly Weather History & Observations

Time (CDT) Temp. Dew Point Humidity Pressure Visibility Wind Dir Wind Speed Gust Speed Precip Events Conditions
12:15 AM 57.2 °F 53.1 °F 86% 30.15 in 10.0 mi Calm Calm - N/A   Clear
12:35 AM 57.2 °F 53.8 °F 88% 30.14 in 10.0 mi Calm Calm - N/A   Clear
12:55 AM 57.2 °F 53.6 °F 88% 30.14 in 10.0 mi Calm Calm - N/A   Clear
1:15 AM 57.2 °F 53.6 °F 88% 30.14 in 10.0 mi Calm Calm - N/A   Clear
1:35 AM 57.0 °F 53.4 °F 88% 30.13 in 10.0 mi Calm Calm - N/A   Clear
1:55 AM 54.7 °F 50.9 °F 87% 30.12 in 10.0 mi Calm Calm - N/A   Clear
2:15 AM 54.7 °F 51.3 °F 88% 30.13 in 10.0 mi Calm Calm - N/A   Clear
2:35 AM 54.7 °F 50.7 °F 86% 30.13 in 10.0 mi Calm Calm - N/A   Clear
2:55 AM 54.7 °F 51.3 °F 88% 30.12 in 10.0 mi Calm Calm - N/A   Clear
3:15 AM 54.7 °F 51.3 °F 88% 30.12 in 10.0 mi Calm Calm - N/A   Clear
3:35 AM 52.2 °F 48.2 °F 86% 30.12 in 10.0 mi Calm Calm - N/A   Clear
3:55 AM 52.5 °F 48.6 °F 86% 30.12 in 10.0 mi Calm Calm - N/A   Clear
4:15 AM 49.6 °F 45.9 °F 87% 30.12 in 10.0 mi Calm Calm - N/A   Clear
4:35 AM 49.6 °F 46.0 °F 87% 30.13 in 10.0 mi Calm Calm - N/A   Clear
4:55 AM 49.6 °F 46.0 °F 87% 30.13 in 10.0 mi Calm Calm - N/A   Clear
5:15 AM 50.5 °F 46.8 °F 87% 30.14 in 10.0 mi Calm Calm - N/A   Clear
5:35 AM 49.6 °F 45.9 °F 87% 30.14 in 10.0 mi Calm Calm - N/A   Clear
5:55 AM 49.6 °F 46.4 °F 89% 30.15 in 10.0 mi Calm Calm - N/A   Clear
6:35 AM 49.6 °F 46.4 °F 89% 30.16 in 10.0 mi Calm Calm - N/A   Clear
7:15 AM 50.9 °F 47.3 °F 87% 30.17 in 10.0 mi Calm Calm - N/A   Clear
7:35 AM 54.7 °F 50.7 °F 86% 30.17 in 10.0 mi Calm Calm - N/A   Clear
7:55 AM 54.7 °F 50.0 °F 84% 30.18 in 10.0 mi Calm Calm - N/A   Clear
8:15 AM 57.2 °F 51.8 °F 82% 30.19 in 10.0 mi Calm Calm - N/A   Clear
8:35 AM 59.9 °F 52.7 °F 77% 30.19 in 10.0 mi Calm Calm - N/A   Clear
8:55 AM 61.2 °F 52.5 °F 73% 30.19 in 10.0 mi Calm Calm - N/A   Clear
9:15 AM 62.8 °F 52.0 °F 68% 30.20 in 10.0 mi Calm Calm - N/A   Clear
9:35 AM 64.2 °F 52.7 °F 66% 30.20 in 10.0 mi Calm Calm - N/A   Clear
9:55 AM 68.2 °F 54.1 °F 61% 30.20 in 10.0 mi East 3.5 mph - N/A   Clear
10:15 AM 69.8 °F 53.8 °F 57% 30.19 in 10.0 mi Calm Calm - N/A   Clear
10:55 AM 69.8 °F 51.3 °F 52% 30.18 in 10.0 mi Calm Calm - N/A   Clear
11:15 AM 73.2 °F 52.9 °F 49% 30.18 in 10.0 mi Calm Calm - N/A   Clear
11:35 AM 74.8 °F 50.9 °F 43% 30.18 in 10.0 mi Calm Calm - N/A   Clear
11:55 AM 74.8 °F 48.6 °F 39% 30.17 in 10.0 mi SE 5.8 mph - N/A   Clear
12:15 PM 76.8 °F 50.4 °F 39% 30.17 in 10.0 mi SW 5.8 mph - N/A   Clear
12:35 PM 77.4 °F 50.2 °F 38% 30.16 in 10.0 mi Calm Calm - N/A   Clear
12:55 PM 74.8 °F 48.9 °F 40% 30.15 in 10.0 mi Calm Calm - N/A   Clear
1:15 PM 77.4 °F 49.3 °F 37% 30.13 in 10.0 mi SE 5.8 mph - N/A   Clear
1:35 PM 77.4 °F 46.9 °F 34% 30.12 in 10.0 mi ESE 6.9 mph - N/A   Clear
1:55 PM 79.5 °F 48.2 °F 33% 30.11 in 10.0 mi East 4.6 mph - N/A   Clear
2:15 PM 79.9 °F 45.1 °F 29% 30.11 in 10.0 mi ESE 3.5 mph - N/A   Clear
2:35 PM 79.9 °F 45.3 °F 29% 30.10 in 10.0 mi SE 3.5 mph - N/A   Clear
2:55 PM 80.2 °F 45.3 °F 29% 30.09 in 10.0 mi Calm Calm - N/A   Clear
3:15 PM 80.8 °F 44.4 °F 28% 30.09 in 10.0 mi NW 4.6 mph - N/A   Clear
3:35 PM 80.2 °F 43.7 °F 27% 30.09 in 10.0 mi SSW 5.8 mph - N/A   Clear
3:55 PM 80.1 °F 43.9 °F 28% 30.09 in 10.0 mi Calm Calm - N/A   Clear
4:15 PM 79.9 °F 43.2 °F 27% 30.10 in 10.0 mi Calm Calm - N/A   Clear
4:35 PM 79.9 °F 44.6 °F 29% 30.09 in 10.0 mi Calm Calm - N/A   Clear
4:55 PM 79.9 °F 45.9 °F 30% 30.09 in 10.0 mi Calm Calm - N/A   Clear
5:15 PM 75.2 °F 57.6 °F 54% 30.09 in 10.0 mi Calm Calm - N/A   Clear
5:35 PM 74.8 °F 62.6 °F 66% 30.09 in 10.0 mi Calm Calm - N/A   Clear
5:55 PM 69.8 °F 57.7 °F 65% 30.10 in 10.0 mi Calm Calm - N/A   Clear
6:15 PM 68.7 °F 60.1 °F 74% 30.10 in 10.0 mi Calm Calm - N/A   Clear
6:35 PM 64.8 °F 57.9 °F 78% 30.11 in 10.0 mi Calm Calm - N/A   Clear
6:55 PM 63.5 °F 57.9 °F 82% 30.11 in 10.0 mi Calm Calm - N/A   Clear
7:15 PM 61.3 °F 55.4 °F 81% 30.11 in 10.0 mi Calm Calm - N/A   Clear
7:35 PM 60.1 °F 54.5 °F 82% 30.11 in 10.0 mi Calm Calm - N/A   Clear
7:55 PM 58.6 °F 53.6 °F 83% 30.11 in 10.0 mi Calm Calm - N/A   Clear
8:15 PM 57.2 °F 52.9 °F 85% 30.11 in 7.0 mi Calm Calm - N/A   Clear
8:35 PM 57.6 °F 53.6 °F 87% 30.11 in 10.0 mi Calm Calm - N/A   Clear
8:55 PM 59.7 °F 56.3 °F 88% 30.12 in 7.0 mi Calm Calm - N/A   Clear
9:15 PM 57.2 °F 53.4 °F 87% 30.12 in 10.0 mi Calm Calm - N/A   Clear
9:35 PM 57.2 °F 53.6 °F 88% 30.12 in 10.0 mi Calm Calm - N/A   Clear
9:55 PM 55.6 °F 51.8 °F 87% 30.12 in 10.0 mi Calm Calm - N/A   Clear
10:15 PM 54.7 °F 50.7 °F 86% 30.12 in 10.0 mi Calm Calm - N/A   Clear
10:35 PM 54.7 °F 50.7 °F 86% 30.12 in 10.0 mi Calm Calm - N/A   Clear
11:35 PM 54.7 °F 50.9 °F 87% 30.11 in 10.0 mi Calm Calm - N/A   Clear
11:55 PM 54.7 °F 50.5 °F 86% 30.11 in 10.0 mi Calm Calm - N/A   Clear